Change the Weather History Date:

Sunday, December 15, 2013

  Actual Average Record
Temperature  
Mean Temperature 48 °F -  
Max Temperature 54 °F 46 °F 54 °F (2013)
Min Temperature 41 °F 37 °F 26 °F (2001)
Degree Days  
Heating Degree Days 18    
Moisture  
Dew Point 41 °F    
Average Humidity 77    
Maximum Humidity 100    
Minimum Humidity 66    
Precipitation  
Precipitation 0.04 in 0.10 in - ()
Sea Level Pressure  
Sea Level Pressure 29.73 in    
Wind  
Wind Speed 17 mph ()    
Max Wind Speed 26 mph    
Max Gust Speed 39 mph    
Visibility 6.5 miles    
Events Rain    
Averages and records for this station are not official NWS values.
T = Trace of Precipitation, MM = Missing Value Source: Averaged Metar Reports

Daily Weather History Graph

Daily Weather History Graph

Search for Another Location

Airport or City:

Trip Planner

Search our weather history database for the weather conditions in past years. The results will help you decide how hot, cold, wet, or windy it might be!

Date:

Astronomy

Dec. 15, 2013 Rise Set
Actual Time 8:34 AM GMT 4:06 PM GMT
Civil Twilight 7:51 AM GMT 4:48 PM GMT
Nautical Twilight 7:06 AM GMT 5:34 PM GMT
Astronomical Twilight 6:23 AM GMT 6:16 PM GMT
Moon 3:11 PM GMT (12/15) 6:26 AM GMT (12/15)
Length of Visible Light 8h 57m
Length of Day
7h 31m
Waxing Gibbous, 97% of the Moon is Illuminated
Dec 15
Waxing Gibbous
Dec 17
Full
Dec 25
Last Quarter
Jan 1
New
Jan 8
First Quarter

Hourly Weather History & Observations

Time (GMT) Temp. Windchill Dew Point Humidity Pressure Visibility Wind Dir Wind Speed Gust Speed Precip Events Conditions
12:00 AM 46 °F - 39 °F 70% 29.87 in 19 mi WSW 24.6 mph - -   Partly Cloudy
12:00 AM 46.4 °F 37.9 °F 39.2 °F 76% 29.86 in 6.2 mi WSW 25.3 mph 36.8 mph N/A   Mostly Cloudy
12:30 AM 44.6 °F 35.5 °F 37.4 °F 76% 29.86 in 6.2 mi WSW 25.3 mph - N/A   Scattered Clouds
1:00 AM 44.6 °F 36.4 °F 37.4 °F 76% 29.89 in 6.2 mi WSW 20.7 mph - N/A   Partly Cloudy
1:30 AM 42.8 °F 34.8 °F 37.4 °F 81% 29.92 in 6.2 mi WSW 17.3 mph - N/A   Partly Cloudy
2:00 AM 42.8 °F 35.8 °F 37.4 °F 81% 29.92 in 6.2 mi WSW 13.8 mph - N/A   Partly Cloudy
2:30 AM 42.8 °F 34.8 °F 37.4 °F 81% 29.92 in 6.2 mi WSW 17.3 mph - N/A   Partly Cloudy
3:00 AM 42.8 °F 34.8 °F 37.4 °F 81% 29.89 in 6.2 mi WSW 17.3 mph - N/A   Partly Cloudy
3:30 AM 42.8 °F 34.3 °F 37.4 °F 81% 29.92 in 6.2 mi SW 19.6 mph - N/A   Partly Cloudy
4:00 AM 42.8 °F 37.0 °F 35.6 °F 76% 29.92 in 6.2 mi South 10.4 mph - N/A   Partly Cloudy
4:30 AM 42.8 °F 36.6 °F 35.6 °F 76% 29.92 in 6.2 mi South 11.5 mph - N/A   Partly Cloudy
5:00 AM 42.8 °F 36.6 °F 35.6 °F 76% 29.89 in 6.2 mi ESE 11.5 mph - N/A   Mostly Cloudy
5:30 AM 42.8 °F 35.1 °F 35.6 °F 76% 29.86 in 6.2 mi SSE 16.1 mph - N/A   Mostly Cloudy
6:00 AM 42 °F - 34 °F 66% 29.87 in 22 mi South 11.2 mph - -   Scattered Clouds
6:00 AM 42.8 °F 36.6 °F 35.6 °F 76% 29.86 in 6.2 mi South 11.5 mph - N/A   Scattered Clouds
6:30 AM 44.6 °F 36.4 °F 33.8 °F 66% 29.83 in 6.2 mi SSE 20.7 mph - N/A   Scattered Clouds
7:00 AM 44.6 °F 36.1 °F 35.6 °F 71% 29.80 in 6.2 mi South 21.9 mph 33.4 mph N/A   Partly Cloudy
7:30 AM 44.6 °F 36.9 °F 37.4 °F 76% 29.77 in 6.2 mi South 18.4 mph - N/A   Partly Cloudy
8:00 AM 46.4 °F 39.5 °F 37.4 °F 71% 29.80 in 6.2 mi South 17.3 mph - N/A   Mostly Cloudy
8:30 AM 46.4 °F 39.5 °F 39.2 °F 76% 29.77 in 6.2 mi South 17.3 mph - N/A   Mostly Cloudy
9:00 AM 48.2 °F - 39.2 °F 71% 29.74 in 6.2 mi South 19.6 mph - N/A   Mostly Cloudy
9:30 AM 48.2 °F - 37.4 °F 66% 29.74 in 6.2 mi South 11.5 mph - N/A   Scattered Clouds
10:00 AM 50.0 °F - 39.2 °F 66% 29.74 in 6.2 mi South 17.3 mph 31.1 mph N/A   Mostly Cloudy
10:30 AM 50.0 °F - 39.2 °F 66% 29.74 in 6.2 mi South 17.3 mph - N/A   Mostly Cloudy
11:00 AM 50.0 °F - 42.8 °F 76% 29.71 in 6.2 mi South 19.6 mph - N/A   Mostly Cloudy
11:30 AM 51.8 °F - 44.6 °F 76% 29.68 in 6.2 mi South 20.7 mph 38.0 mph N/A   Mostly Cloudy
12:00 PM 53 °F - 46 °F 69% 29.68 in 25 mi South 17.9 mph - -   Partly Cloudy
12:00 PM 53.6 °F - 46.4 °F 77% 29.68 in 6.2 mi South 17.3 mph - N/A   Mostly Cloudy
12:30 PM 53.6 °F - 44.6 °F 72% 29.65 in 6.2 mi SSW 24.2 mph - N/A   Mostly Cloudy
1:00 PM 53.6 °F - 44.6 °F 72% 29.62 in 6.2 mi SSW 23.0 mph 35.7 mph N/A   Mostly Cloudy
1:30 PM 53.6 °F - 44.6 °F 72% 29.62 in 6.2 mi SSW 25.3 mph 39.1 mph N/A   Mostly Cloudy
2:00 PM 53.6 °F - 44.6 °F 72% 29.62 in 6.2 mi SW 23.0 mph 35.7 mph N/A   Mostly Cloudy
2:30 PM 51.8 °F - 44.6 °F 76% 29.62 in 4.3 mi SW 26.5 mph 39.1 mph N/A Rain Light Rain
3:00 PM 48.2 °F - 44.6 °F 87% 29.65 in 6.2 mi West 18.4 mph - N/A   Mostly Cloudy
3:30 PM 46.4 °F 41.1 °F 42.8 °F 87% 29.68 in 6.2 mi West 11.5 mph - N/A   Mostly Cloudy
4:00 PM 44.6 °F 40.2 °F 42.8 °F 93% 29.68 in 6.2 mi SSW 8.1 mph - N/A Rain Light Rain
4:30 PM 44.6 °F 41.4 °F 44.6 °F 100% 29.65 in 5.0 mi South 5.8 mph - N/A Rain Light Rain
5:00 PM 46.4 °F 41.1 °F 44.6 °F 93% 29.62 in 6.2 mi SSE 11.5 mph - N/A Rain Light Rain
5:30 PM 48.2 °F - 44.6 °F 87% 29.62 in 6.2 mi South 8.1 mph - N/A   Mostly Cloudy
6:00 PM 50 °F - 46 °F 81% 29.65 in 12 mi South 11.2 mph - - Rain Light Rain
6:00 PM 50.0 °F - 46.4 °F 87% 29.62 in 6.2 mi South 11.5 mph - N/A   Mostly Cloudy
6:30 PM 50.0 °F - 46.4 °F 87% 29.62 in 6.2 mi SE 6.9 mph - N/A   Mostly Cloudy
7:00 PM 50.0 °F - 46.4 °F 87% 29.62 in 6.2 mi SE 4.6 mph - N/A   Mostly Cloudy
7:30 PM 53.6 °F - 46.4 °F 77% 29.59 in 6.2 mi SSW 18.4 mph - N/A   Mostly Cloudy
8:00 PM 53.6 °F - 46.4 °F 77% 29.59 in 6.2 mi SSW 18.4 mph - N/A   Mostly Cloudy
8:30 PM 53.6 °F - 46.4 °F 77% 29.59 in 6.2 mi SSW 23.0 mph - N/A   Mostly Cloudy
9:00 PM 53.6 °F - 46.4 °F 77% 29.59 in 6.2 mi SW 21.9 mph - N/A   Mostly Cloudy
9:30 PM 53.6 °F - 46.4 °F 77% 29.59 in 6.2 mi SSW 19.6 mph - N/A   Mostly Cloudy
10:00 PM 51.8 °F - 46.4 °F 82% 29.59 in 6.2 mi SW 17.3 mph - N/A   Mostly Cloudy
10:30 PM 51.8 °F - 44.6 °F 76% 29.59 in 6.2 mi SW 23.0 mph - N/A   Mostly Cloudy
11:00 PM 51.8 °F - 44.6 °F 76% 29.59 in 6.2 mi SW 21.9 mph - N/A Rain Light Rain
11:30 PM 50.0 °F - 44.6 °F 82% 29.59 in 6.2 mi SSW 23.0 mph 34.5 mph N/A Rain Light Rain